Tracking 35274 objects as of 11-Sep-2026
HD Live streaming from Space Station
objects crossing your sky now

SL-4 R/B


SL-4 R/B is no longer on orbit


NORAD ID: 13009
Int'l Code: 1981-121B
Launch date: December 19, 1981
Source: Commonwealth of Independent States (former USSR) (CIS)
Launch site: TYURATAM MISSILE AND SPACE COMPLEX (TTMTR)
Decay date: 1981-12-23

Note: This is a ROCKET BODY
Your satellite tracking list
Your tracking list is empty




NASA's NSSDC Master Catalog

Two Line Element Set (TLE):
1 13009U 81121  B 81357.63726054  .16367321 +05684-5 +09876-4 0  9994
2 13009 070.3651 296.4980 0053801 067.9091 293.1735 16.40322876000676
Source of the keplerian elements: AFSPC